www.pogodaiklimat.ru

Погода и климат >> Архив погоды >> Россия >> Краснодарский край >> Должанка


ПОГОДА в Должанке

  • Прогноз погоды в Должанке
  • Монитор погоды в Должанке

АРХИВ ПОГОДЫ в Должанке

Время (UTC), дата Ветер
(напр.,м/с)
 
Видим.   Явления Облачность Т
(С)
Тd
(С)
f
(%)
Тe
(С)
Тes
(С)
Комфортность P
(гПа)
Po
(гПа)
Тmin
(С)
Tmax
(С)
R
(мм)
R24
(мм)
S
(см)
09 12.08 З 3 10 км ясно +26.5 +15.6 51 +30 +43 душно 1018.3 1017.9
12 12.08 ЮЗ 3 10 км ясно +28.0 +14.2 43 +30 +39 жарко 1017.6 1017.3
15 12.08 З 3 10 км ясно +26.4 +16.0 53 +30 +31 душно 1017.5 1017.1 +28.1
18 12.08 СЗ 3 10 км ясно +24.9 +18.1 66 +29 +29 душно 1018.2 1017.8
21 12.08 С 2 10 км ясно +20.9 +18.1 84 +26 +26 душно 1018.6 1018.2
00 13.08 В 3 10 км ясно +20.2 +11.3 57 +22 +22 комфорт 1019.1 1018.7
03 13.08 В 3 10 км ясно +19.1 +9.5 54 +20 +20 1019.3 1018.9 +18.2
06 13.08 В 4 10 км ясно +26.2 +8.2 32 +26 +31 жарко 1019.3 1019.0
09 13.08 С 6
{10}
10 км ясно +27.3 +9.1 32 +27 +34 жарко 1019.2 1018.8
12 13.08 С 6
{10}
10 км ясно +27.3 +10.6 35 +28 +32 жарко 1017.5 1017.2
15 13.08 СВ 5
{10}
10 км ясно +26.8 +13.1 43 +29 +29 жарко 1016.5 1016.1 +27.7
18 13.08 В 3 10 км ясно +24.1 +15.8 60 +27 +27 жарко 1016.5 1016.1
21 13.08 В 3 10 км {гроза} ясно +23.1 +12.6 52 +26 +26 жарко 1016.4 1016.0
00 14.08 В 3 10 км ясно +21.4 +6.8 39 +22 +22 комфорт 1015.9 1015.6
03 14.08 В 3 10 км ясно +20.1 +7.2 43 +21 +21 комфорт 1015.8 1015.5 +20.0
06 14.08 В 5 10 км ясно +27.6 +7.7 28 +27 +31 жарко 1015.5 1015.2
09 14.08 СВ 7-11
{11}
10 км ясно +28.9 +13.8 40 +31 +35 жарко 1013.9 1013.5
12 14.08 СВ 8-11
{12}
10 км ясно +28.5 +16.0 47 +32 +34 душно 1012.2 1011.8
15 14.08 СВ 6-11
{12}
10 км ясно +28.2 +16.3 48 +31 +32 душно 1010.7 1010.3 +29.3
18 14.08 СВ 3
{11}
10 км ясно +24.6 +7.9 34 +25 +25 комфорт 1010.8 1010.4
21 14.08 В 4 10 км ясно +24.0 +7.6 35 +24 +24 комфорт 1010.0 1009.6
00 15.08 С 4 10 км ясно +21.5 +6.0 36 +22 +22 комфорт 1009.4 1009.0
03 15.08 СВ 5 10 км ясно +22.5 +7.8 39 +24 +24 комфорт 1008.9 1008.5 +21.4
06 15.08 В 6 10 км ясно +25.9 +8.8 34 +26 +29 жарко 1007.8 1007.5
09 15.08 З 3
{11}
10 км 4/0
[Cs]
+29.0 +13.1 38 +31 +42 жарко 1007.1 1006.8
12 15.08 СЗ 3 10 км 4/0
[Cs]
+30.1 +11.0 31 +30 +39 жарко 1006.0 1005.7
15 15.08 СЗ 3 10 км ясно +28.2 +18.1 54 +33 +34 очень
душно
1005.5 1005.2 +33.6
18 15.08 СЗ 2 10 км ясно +25.1 +18.9 68 +30 +30 душно 1005.8 1005.5
21 15.08 С 2 10 км 4/0
[Ac trans]
+24.9 +19.3 71 +30 +30 душно 1005.7 1005.4
00 16.08 ЮВ 4 10 км 10/0
[Ac trans]
+24.9 +12.1 45 +27 +27 жарко 1005.5 1005.1
03 16.08 СЗ 2 10 км 10/0
[Ac trans]
+24.5 +20.6 79 +30 +31 очень
душно
1005.2 1004.9 +21.3
06 16.08 Ю 5 10 км 10/0
[Ac trans]
+25.7 +19.4 68 +31 +33 очень
душно
1006.2 1005.9
09 16.08 З 3 10 км 8/0
[Ac trans]
+26.4 +21.8 76 +34 +40 очень
душно
1006.7 1006.4
12 16.08 СВ 2 10 км 10/0
[Ac As]
+26.5 +15.2 50 +29 +33 жарко 1006.5 1006.1
15 16.08 З 1 10 км 8/6 600 м
[Sc Ac trans Ci fib]
+25.6 +19.2 68 +31 +31 очень
душно
1006.5 1006.2 +28.0
18 16.08 З 4 10 км 10/10 300 м
[Cb calv]
+25.4 +21.0 77 +32 +32 очень
душно
1007.9 1007.5
21 16.08 З 6 10 км {ливн. осадки} 10/10 300 м
[Cb calv]
+24.3 +19.0 72 +29 +29 душно 1008.2 1007.9
00 17.08 СЗ 2 10 км {ливн. осадки} 9/0
[Ac trans]
+23.2 +18.7 76 +29 +29 душно 1007.7 1007.3
03 17.08 З 2 10 км слаб. ливневой дождь 9/9 300 м
[Cb calv]
+22.2 +18.6 80 +27 +27 душно 1008.3 1007.9 +22.2
06 17.08 СВ 1 10 км {ливн. осадки} 8/8 600 м
[Cu Sc]
+24.4 +18.6 70 +29 +31 душно 1008.6 1008.2 +21.2
09 17.08 З 4 10 км 6/4 600 м
[Cu med, cong Cc]
+25.4 +19.3 69 +31 +36 очень
душно
1008.9 1008.6
12 17.08 З 5 10 км 1/1 600 м
[Cu hum]
+25.2 +18.7 67 +30 +35 душно 1009.1 1008.8
15 17.08 З 4 10 км ясно +24.4 +17.6 66 +28 +29 душно 1009.4 1009.0 +25.9 0.3
18 17.08 З 7-10
{10}
10 км 6/0
[Ac trans Ci fib]
+23.7 +16.3 63 +27 +27 жарко 1010.0 1009.6
21 17.08 С 3
{10}
10 км 8/0
[Ci fib]
+20.9 +14.7 68 +24 +24 комфорт 1010.3 1009.9
00 18.08 СЗ 4 10 км 8/0
[Ci fib]
+20.2 +14.6 70 +23 +23 комфорт 1010.5 1010.1
03 18.08 С 2 10 км 8/0
[Ac trans Cc]
+18.8 +14.6 77 +20 +20 1010.6 1010.3 +18.6
06 18.08 С 4 10 км 8/3 600 м
[Cu med, cong Ci fib]
+22.2 +15.5 66 +26 +29 душно 1011.1 1010.7
09 18.08 СЗ 3 10 км 8/3 600 м
[Cu hum Cs]
+24.4 +13.5 51 +27 +34 жарко 1011.4 1011.1
12 18.08 СЗ 4 10 км 3/0
[Ci fib]
+24.5 +14.1 52 +27 +33 жарко 1011.2 1010.8
15 18.08 З 5 10 км 9/9 300 м
[Cb calv]
+24.1 +16.1 61 +27 +28 жарко 1011.3 1010.9 +24.9
18 18.08 С 5
{12}
10 км слаб. ливневой дождь, в посл. час гроза 10/10 300 м
[Cb calv]
+19.2 +16.9 87 +21 +21 комфорт 1012.5 1012.1
21 18.08 С 1 10 км {ливн. осадки} 8/0
[Cs]
+19.2 +17.3 89 +22 +22 комфорт 1013.4 1013.0
00 19.08 С 4 10 км {ливн. осадки} 8/4 600 м
[Sc Ac trans]
+20.8 +17.3 80 +25 +25 комфорт 1013.7 1013.3
03 19.08 СВ 3 10 км 10/10 300 м
[Cb calv]
+21.0 +18.4 85 +26 +26 душно 1014.5 1014.2 +18.6 6
06 19.08 С 4 10 км 10/10 300 м
[Cb calv]
+21.6 +18.5 83 +26 +26 душно 1015.5 1015.2

 

Местоположение метеостанции Должанка (Краснодарский край, Россия): широта 46.68 долгота 37.73 высота над уровнем моря 3 м.

В архиве по умолчанию представлена погода в Должанке за последнюю неделю. Архивные данные за месяц целиком и за предыдущие месяцы, начиная с января 2011 года, Вы можете получить, выбрав интересующий диапазон дат из раскрывающегося списка и нажав кнопку "Ввод!".


*Определитесь, кто Вы:
робот инопланетянин человек

Внимание! Время в таблицах - всемирное. Для получения местного времени необходимо прибавить поправку, которая равна 3 ч.

Смотрите также архив погоды в соседних городах и на ближайших метеорологических станциях:

Погода в Мариуполе (Донецкая область, Украина) (43 км)
Погода в Ейске (Краснодарский край, Россия) (43 км)
Погода в Бердянске (Запорожская область, Украина) (73 км)
Погода в Приморско-Ахтарске (Краснодарский край, Россия) (79 км)
Погода в Маргаритово (Ростовская область, Россия) (91 км)
Погода в Староминская (Краснодарский край, Россия) (100 км)
Погода в Таганроге (Ростовская область, Россия) (106 км)
Погода в Волновахе (Донецкая область, Украина) (108 км)
Погода в Каневской (Краснодарский край, Россия) (117 км)
Погода в Кирилловке (Запорожская область, Украина) (128 км)

Пояснения к столбцам:

Ветер - указаны скорость ветра в м/с - средняя за 10 мин, порывы в срок и между сроками (в фигурных скобках) и направление, откуда дует ветер: С - северный, СВ - северо-восточный, В - восточный, ЮВ - юго-восточный, Ю - южный, ЮЗ - юго-западный, З - западный, СЗ - северо-западный.
Видимость - горизонтальная дальность видимости в метрах или километрах. При видимости от 1 до 10 км при отсутствии осадков обычно наблюдается дымка, при ухудшении видимости до 1 км и менее - туман. В сухую погоду видимость может ухудшаться дымом, пылью или мглою.
Явления - указаны атмосферные явления, наблюдавшиеся в срок или в последний час перед сроком; фигурными скобками обозначены явления, наблюдавшиеся между сроками (за 1-3 часа до срока); квадратными скобками обозначены град или гололедные отложения с указанием их диаметра в мм.
Облачность - указаны через наклонную черту общая и нижняя облачность в баллах и высота нижней границы облаков в метрах; квадратными скобками обозначены формы облаков: Ci - перистые, Cs - перисто-слоистые, Cc - перисто-кучевые, Ac - высококучевые, As - высокослоистые, Sc - слоисто-кучевые, Ns - слоисто-дождевые, Cu - кучевые, Cb - кучево-дождевые. Подробнее классификацию облаков см. в Атласе облаков (PDF).
T - Температура воздуха - температура, измеренная на высоте 2 м над землей.
Td - Температура точки росы - температура, при понижении до которой содержащийся в воздухе водяной пар достигнет насыщения.
f - Относительная влажность воздуха - влажноcть воздуха, измеренная на высоте 2 м над землей.
Te - Эффективная температура - температура, которую ощущает одетый по сезону человек в тени. Характеристика душности погоды. При расчете учитывается влияние влажности воздуха и скорости ветра на теплоощущения человека.
Tes - Эффективная температура на солнце - температура, которую ощущает человек, с поправкой на солнечный нагрев. Характеристика знойности погоды. Зависит от высоты солнца над горизонтом, облачности и скорости ветра. Ночью, в пасмурную погоду, а также при ветре 12 м/с и более поправка равна нулю.
P - Атмосферное давление - приведенное к уровню моря атмосферное давление.
Po - Атмосферное давление - измеренное на уровне метеостанции атмосферное давление.
Tmin - Минимальная температура - минимум температуры воздуха на высоте 2 м над землей.
Tmax - Максимальная температура - максимум температуры воздуха на высоте 2 м над землей.
R - Количество осадков - Количество выпавших осадков за период времени, мм. При наведении курсора мыши на число - период времени, за который выпало указанное количество осадков.
R24 - Количество осадков - Количество выпавших осадков за 24 часа, мм.
S - Снежный покров - Высота снежного покрова, см. При наведении курсора мыши на число - состояние снежного покрова и степень покрытия местности в баллах.